owner,sensor,date,latitude,longitude,vertical_datum,sea_water_practical_salinity,qcFlag 
ENP,ioos.station.NOAA.NDBC:GBTF1:1,2018-08-01T02:00:00Z,25.1670,-80.8010,1.5,27.05,1111122 
ENP,ioos.station.NOAA.NDBC:GBTF1:1,2018-08-01T06:00:00Z,25.1670,-80.8010,1.5,28.41,1111122 
ENP,ioos.station.NOAA.NDBC:GBTF1:1,2018-08-01T07:00:00Z,25.1670,-80.8010,1.5,28.55,1111122 
ENP,ioos.station.NOAA.NDBC:GBTF1:1,2018-08-01T08:00:00Z,25.1670,-80.8010,1.5,28.7,1111122 
ENP,ioos.station.NOAA.NDBC:GBTF1:1,2018-08-01T09:00:00Z,25.1670,-80.8010,1.5,28.7,1111122 
ENP,ioos.station.NOAA.NDBC:GBTF1:1,2018-08-01T10:00:00Z,25.1670,-80.8010,1.5,28.77,1111122 
ENP,ioos.station.NOAA.NDBC:GBTF1:1,2018-08-01T11:00:00Z,25.1670,-80.8010,1.5,28.12,1111122 
ENP,ioos.station.NOAA.NDBC:GBTF1:1,2018-08-01T12:00:00Z,25.1670,-80.8010,1.5,27.77,1111122 
ENP,ioos.station.NOAA.NDBC:GBTF1:1,2018-08-01T13:00:00Z,25.1670,-80.8010,1.5,26.56,1111122 
ENP,ioos.station.NOAA.NDBC:GBTF1:1,2018-08-01T14:00:00Z,25.1670,-80.8010,1.5,26.63,1111122 
ENP,ioos.station.NOAA.NDBC:GBTF1:1,2018-08-01T15:00:00Z,25.1670,-80.8010,1.5,26.63,1111122 
ENP,ioos.station.NOAA.NDBC:GBTF1:1,2018-08-01T16:00:00Z,25.1670,-80.8010,1.5,25.85,1111122 
ENP,ioos.station.NOAA.NDBC:GBTF1:1,2018-08-01T17:00:00Z,25.1670,-80.8010,1.5,25.42,1111122 
ENP,ioos.station.NOAA.NDBC:GBTF1:1,2018-08-01T18:00:00Z,25.1670,-80.8010,1.5,24.65,1111122 
ENP,ioos.station.NOAA.NDBC:GBTF1:1,2018-08-01T19:00:00Z,25.1670,-80.8010,1.5,24.09,1111122 
ENP,ioos.station.NOAA.NDBC:GBTF1:1,2018-08-01T20:00:00Z,25.1670,-80.8010,1.5,23.88,1111122 
ENP,ioos.station.NOAA.NDBC:GBTF1:1,2018-08-01T21:00:00Z,25.1670,-80.8010,1.5,23.67,1111122 
ENP,ioos.station.NOAA.NDBC:GBTF1:1,2018-08-01T22:00:00Z,25.1670,-80.8010,1.5,23.25,1111122 
ENP,ioos.station.NOAA.NDBC:GBTF1:1,2018-08-01T23:00:00Z,25.1670,-80.8010,1.5,23.18,1111122 
ENP,ioos.station.NOAA.NDBC:GBTF1:1,2018-08-02T00:00:00Z,25.1670,-80.8010,1.5,23.32,1111122 
ENP,ioos.station.NOAA.NDBC:GBTF1:1,2018-08-02T01:00:00Z,25.1670,-80.8010,1.5,23.95,1111122 
ENP,ioos.station.NOAA.NDBC:GBTF1:1,2018-08-02T02:00:00Z,25.1670,-80.8010,1.5,25.42,1111122 
ENP,ioos.station.NOAA.NDBC:GBTF1:1,2018-08-02T03:00:00Z,25.1670,-80.8010,1.5,26.06,1111122 
ENP,ioos.station.NOAA.NDBC:GBTF1:1,2018-08-02T06:00:00Z,25.1670,-80.8010,1.5,27.12,1111122 
ENP,ioos.station.NOAA.NDBC:GBTF1:1,2018-08-02T07:00:00Z,25.1670,-80.8010,1.5,27.34,1111122 
ENP,ioos.station.NOAA.NDBC:GBTF1:1,2018-08-02T08:00:00Z,25.1670,-80.8010,1.5,27.48,1111122 
ENP,ioos.station.NOAA.NDBC:GBTF1:1,2018-08-02T09:00:00Z,25.1670,-80.8010,1.5,27.62,1111122 
ENP,ioos.station.NOAA.NDBC:GBTF1:1,2018-08-02T10:00:00Z,25.1670,-80.8010,1.5,27.62,1111122 
ENP,ioos.station.NOAA.NDBC:GBTF1:1,2018-08-02T11:00:00Z,25.1670,-80.8010,1.5,27.69,1111122 
ENP,ioos.station.NOAA.NDBC:GBTF1:1,2018-08-02T12:00:00Z,25.1670,-80.8010,1.5,27.77,1111122 
ENP,ioos.station.NOAA.NDBC:GBTF1:1,2018-08-02T13:00:00Z,25.1670,-80.8010,1.5,27.84,1111122 
ENP,ioos.station.NOAA.NDBC:GBTF1:1,2018-08-02T14:00:00Z,25.1670,-80.8010,1.5,27.84,1111122 
ENP,ioos.station.NOAA.NDBC:GBTF1:1,2018-08-02T15:00:00Z,25.1670,-80.8010,1.5,26.84,1111122 
ENP,ioos.station.NOAA.NDBC:GBTF1:1,2018-08-02T16:00:00Z,25.1670,-80.8010,1.5,25.99,1111122 
ENP,ioos.station.NOAA.NDBC:GBTF1:1,2018-08-02T17:00:00Z,25.1670,-80.8010,1.5,25.99,1111122 
ENP,ioos.station.NOAA.NDBC:GBTF1:1,2018-08-02T18:00:00Z,25.1670,-80.8010,1.5,25.85,1111122 
ENP,ioos.station.NOAA.NDBC:GBTF1:1,2018-08-02T19:00:00Z,25.1670,-80.8010,1.5,24.3,1111122 
ENP,ioos.station.NOAA.NDBC:GBTF1:1,2018-08-02T20:00:00Z,25.1670,-80.8010,1.5,24.16,1111122 
ENP,ioos.station.NOAA.NDBC:GBTF1:1,2018-08-02T21:00:00Z,25.1670,-80.8010,1.5,24.3,1111122 
ENP,ioos.station.NOAA.NDBC:GBTF1:1,2018-08-02T22:00:00Z,25.1670,-80.8010,1.5,24.3,1111122 
ENP,ioos.station.NOAA.NDBC:GBTF1:1,2018-08-02T23:00:00Z,25.1670,-80.8010,1.5,24.37,1111122 
ENP,ioos.station.NOAA.NDBC:GBTF1:1,2018-08-03T00:00:00Z,25.1670,-80.8010,1.5,24.37,1111122 
ENP,ioos.station.NOAA.NDBC:GBTF1:1,2018-08-03T01:00:00Z,25.1670,-80.8010,1.5,24.51,1111122 
ENP,ioos.station.NOAA.NDBC:GBTF1:1,2018-08-03T02:00:00Z,25.1670,-80.8010,1.5,24.86,1111122 
ENP,ioos.station.NOAA.NDBC:GBTF1:1,2018-08-03T03:00:00Z,25.1670,-80.8010,1.5,25.14,1111122 
ENP,ioos.station.NOAA.NDBC:GBTF1:1,2018-08-03T06:00:00Z,25.1670,-80.8010,1.5,25.78,1111122 
ENP,ioos.station.NOAA.NDBC:GBTF1:1,2018-08-03T07:00:00Z,25.1670,-80.8010,1.5,25.85,1111122 
ENP,ioos.station.NOAA.NDBC:GBTF1:1,2018-08-03T08:00:00Z,25.1670,-80.8010,1.5,25.92,1111122 
ENP,ioos.station.NOAA.NDBC:GBTF1:1,2018-08-03T09:00:00Z,25.1670,-80.8010,1.5,26.06,1111122 
ENP,ioos.station.NOAA.NDBC:GBTF1:1,2018-08-03T10:00:00Z,25.1670,-80.8010,1.5,26.27,1111122 
ENP,ioos.station.NOAA.NDBC:GBTF1:1,2018-08-03T11:00:00Z,25.1670,-80.8010,1.5,26.56,1111122 
ENP,ioos.station.NOAA.NDBC:GBTF1:1,2018-08-03T12:00:00Z,25.1670,-80.8010,1.5,26.77,1111122 
ENP,ioos.station.NOAA.NDBC:GBTF1:1,2018-08-03T13:00:00Z,25.1670,-80.8010,1.5,27.34,1111122 
ENP,ioos.station.NOAA.NDBC:GBTF1:1,2018-08-03T14:00:00Z,25.1670,-80.8010,1.5,27.48,1111122 
ENP,ioos.station.NOAA.NDBC:GBTF1:1,2018-08-03T15:00:00Z,25.1670,-80.8010,1.5,26.84,1111122 
ENP,ioos.station.NOAA.NDBC:GBTF1:1,2018-08-03T16:00:00Z,25.1670,-80.8010,1.5,26.27,1111122 
ENP,ioos.station.NOAA.NDBC:GBTF1:1,2018-08-03T17:00:00Z,25.1670,-80.8010,1.5,26.13,1111122 
ENP,ioos.station.NOAA.NDBC:GBTF1:1,2018-08-03T18:00:00Z,25.1670,-80.8010,1.5,26.2,1111122 
ENP,ioos.station.NOAA.NDBC:GBTF1:1,2018-08-03T19:00:00Z,25.1670,-80.8010,1.5,26.27,1111122 
ENP,ioos.station.NOAA.NDBC:GBTF1:1,2018-08-03T20:00:00Z,25.1670,-80.8010,1.5,26.27,1111122 
ENP,ioos.station.NOAA.NDBC:GBTF1:1,2018-08-03T21:00:00Z,25.1670,-80.8010,1.5,26.56,1111122 
ENP,ioos.station.NOAA.NDBC:GBTF1:1,2018-08-03T22:00:00Z,25.1670,-80.8010,1.5,26.84,1111122 
ENP,ioos.station.NOAA.NDBC:GBTF1:1,2018-08-03T23:00:00Z,25.1670,-80.8010,1.5,27.2,1111122 
ENP,ioos.station.NOAA.NDBC:GBTF1:1,2018-08-04T00:00:00Z,25.1670,-80.8010,1.5,26.98,1111122 
ENP,ioos.station.NOAA.NDBC:GBTF1:1,2018-08-04T01:00:00Z,25.1670,-80.8010,1.5,27.2,1111122 
ENP,ioos.station.NOAA.NDBC:GBTF1:1,2018-08-04T02:00:00Z,25.1670,-80.8010,1.5,27.27,1111122 
ENP,ioos.station.NOAA.NDBC:GBTF1:1,2018-08-04T03:00:00Z,25.1670,-80.8010,1.5,26.48,1111122 
ENP,ioos.station.NOAA.NDBC:GBTF1:1,2018-08-04T05:00:00Z,25.1670,-80.8010,1.5,26.34,1111122 
ENP,ioos.station.NOAA.NDBC:GBTF1:1,2018-08-04T07:00:00Z,25.1670,-80.8010,1.5,26.91,1111122 
ENP,ioos.station.NOAA.NDBC:GBTF1:1,2018-08-04T08:00:00Z,25.1670,-80.8010,1.5,26.7,1111122 
ENP,ioos.station.NOAA.NDBC:GBTF1:1,2018-08-04T09:00:00Z,25.1670,-80.8010,1.5,26.7,1111122 
ENP,ioos.station.NOAA.NDBC:GBTF1:1,2018-08-04T10:00:00Z,25.1670,-80.8010,1.5,27.2,1111122 
ENP,ioos.station.NOAA.NDBC:GBTF1:1,2018-08-04T11:00:00Z,25.1670,-80.8010,1.5,27.77,1111122 
ENP,ioos.station.NOAA.NDBC:GBTF1:1,2018-08-04T12:00:00Z,25.1670,-80.8010,1.5,28.05,1111122 
ENP,ioos.station.NOAA.NDBC:GBTF1:1,2018-08-04T13:00:00Z,25.1670,-80.8010,1.5,27.84,1111122 
ENP,ioos.station.NOAA.NDBC:GBTF1:1,2018-08-04T14:00:00Z,25.1670,-80.8010,1.5,27.27,1111122 
ENP,ioos.station.NOAA.NDBC:GBTF1:1,2018-08-04T15:00:00Z,25.1670,-80.8010,1.5,26.91,1111122 
ENP,ioos.station.NOAA.NDBC:GBTF1:1,2018-08-04T16:00:00Z,25.1670,-80.8010,1.5,26.77,1111122 
ENP,ioos.station.NOAA.NDBC:GBTF1:1,2018-08-04T17:00:00Z,25.1670,-80.8010,1.5,26.7,1111122 
ENP,ioos.station.NOAA.NDBC:GBTF1:1,2018-08-04T18:00:00Z,25.1670,-80.8010,1.5,26.7,1111122 
ENP,ioos.station.NOAA.NDBC:GBTF1:1,2018-08-04T19:00:00Z,25.1670,-80.8010,1.5,27.48,1111122 
ENP,ioos.station.NOAA.NDBC:GBTF1:1,2018-08-04T20:00:00Z,25.1670,-80.8010,1.5,28.12,1111122 
ENP,ioos.station.NOAA.NDBC:GBTF1:1,2018-08-04T21:00:00Z,25.1670,-80.8010,1.5,28.55,1111122 
ENP,ioos.station.NOAA.NDBC:GBTF1:1,2018-08-04T22:00:00Z,25.1670,-80.8010,1.5,28.77,1111122 
ENP,ioos.station.NOAA.NDBC:GBTF1:1,2018-08-04T23:00:00Z,25.1670,-80.8010,1.5,28.84,1111122 
ENP,ioos.station.NOAA.NDBC:GBTF1:1,2018-08-05T00:00:00Z,25.1670,-80.8010,1.5,28.98,1111122 
ENP,ioos.station.NOAA.NDBC:GBTF1:1,2018-08-05T01:00:00Z,25.1670,-80.8010,1.5,29.05,1111122 
ENP,ioos.station.NOAA.NDBC:GBTF1:1,2018-08-05T02:00:00Z,25.1670,-80.8010,1.5,28.91,1111122 
ENP,ioos.station.NOAA.NDBC:GBTF1:1,2018-08-05T03:00:00Z,25.1670,-80.8010,1.5,28.19,1111122 
ENP,ioos.station.NOAA.NDBC:GBTF1:1,2018-08-05T06:00:00Z,25.1670,-80.8010,1.5,29.27,1111122 
ENP,ioos.station.NOAA.NDBC:GBTF1:1,2018-08-05T07:00:00Z,25.1670,-80.8010,1.5,29.41,1111122 
ENP,ioos.station.NOAA.NDBC:GBTF1:1,2018-08-05T08:00:00Z,25.1670,-80.8010,1.5,29.49,1111122 
ENP,ioos.station.NOAA.NDBC:GBTF1:1,2018-08-05T09:00:00Z,25.1670,-80.8010,1.5,29.56,1111122 
ENP,ioos.station.NOAA.NDBC:GBTF1:1,2018-08-05T10:00:00Z,25.1670,-80.8010,1.5,29.7,1111122 
ENP,ioos.station.NOAA.NDBC:GBTF1:1,2018-08-05T11:00:00Z,25.1670,-80.8010,1.5,29.77,1111122 
ENP,ioos.station.NOAA.NDBC:GBTF1:1,2018-08-05T12:00:00Z,25.1670,-80.8010,1.5,29.92,1111122 
ENP,ioos.station.NOAA.NDBC:GBTF1:1,2018-08-05T13:00:00Z,25.1670,-80.8010,1.5,29.92,1111122 
ENP,ioos.station.NOAA.NDBC:GBTF1:1,2018-08-05T14:00:00Z,25.1670,-80.8010,1.5,29.92,1111122 
ENP,ioos.station.NOAA.NDBC:GBTF1:1,2018-08-05T15:00:00Z,25.1670,-80.8010,1.5,29.99,1111122 
ENP,ioos.station.NOAA.NDBC:GBTF1:1,2018-08-05T16:00:00Z,25.1670,-80.8010,1.5,29.99,1111122 
ENP,ioos.station.NOAA.NDBC:GBTF1:1,2018-08-05T17:00:00Z,25.1670,-80.8010,1.5,29.99,1111122 
ENP,ioos.station.NOAA.NDBC:GBTF1:1,2018-08-05T18:00:00Z,25.1670,-80.8010,1.5,30.06,1111122 
ENP,ioos.station.NOAA.NDBC:GBTF1:1,2018-08-05T19:00:00Z,25.1670,-80.8010,1.5,29.99,1111122 
ENP,ioos.station.NOAA.NDBC:GBTF1:1,2018-08-05T20:00:00Z,25.1670,-80.8010,1.5,29.99,1111122 
ENP,ioos.station.NOAA.NDBC:GBTF1:1,2018-08-05T21:00:00Z,25.1670,-80.8010,1.5,29.99,1111122 
ENP,ioos.station.NOAA.NDBC:GBTF1:1,2018-08-05T22:00:00Z,25.1670,-80.8010,1.5,29.99,1111122 
ENP,ioos.station.NOAA.NDBC:GBTF1:1,2018-08-05T23:00:00Z,25.1670,-80.8010,1.5,30.06,1111122 
ENP,ioos.station.NOAA.NDBC:GBTF1:1,2018-08-06T00:00:00Z,25.1670,-80.8010,1.5,30.21,1111122 
ENP,ioos.station.NOAA.NDBC:GBTF1:1,2018-08-06T01:00:00Z,25.1670,-80.8010,1.5,30.13,1111122 
ENP,ioos.station.NOAA.NDBC:GBTF1:1,2018-08-06T02:00:00Z,25.1670,-80.8010,1.5,29.99,1111122 
ENP,ioos.station.NOAA.NDBC:GBTF1:1,2018-08-06T03:00:00Z,25.1670,-80.8010,1.5,29.85,1111122 
ENP,ioos.station.NOAA.NDBC:GBTF1:1,2018-08-06T06:00:00Z,25.1670,-80.8010,1.5,29.34,1111122 
ENP,ioos.station.NOAA.NDBC:GBTF1:1,2018-08-06T07:00:00Z,25.1670,-80.8010,1.5,29.49,1111122 
ENP,ioos.station.NOAA.NDBC:GBTF1:1,2018-08-06T08:00:00Z,25.1670,-80.8010,1.5,29.7,1111122 
ENP,ioos.station.NOAA.NDBC:GBTF1:1,2018-08-06T09:00:00Z,25.1670,-80.8010,1.5,29.85,1111122 
ENP,ioos.station.NOAA.NDBC:GBTF1:1,2018-08-06T10:00:00Z,25.1670,-80.8010,1.5,30.13,1111122 
ENP,ioos.station.NOAA.NDBC:GBTF1:1,2018-08-06T11:00:00Z,25.1670,-80.8010,1.5,30.35,1111122 
ENP,ioos.station.NOAA.NDBC:GBTF1:1,2018-08-06T12:00:00Z,25.1670,-80.8010,1.5,30.57,1111122 
ENP,ioos.station.NOAA.NDBC:GBTF1:1,2018-08-06T13:00:00Z,25.1670,-80.8010,1.5,30.64,1111122 
ENP,ioos.station.NOAA.NDBC:GBTF1:1,2018-08-06T15:00:00Z,25.1670,-80.8010,1.5,30.79,1111122 
ENP,ioos.station.NOAA.NDBC:GBTF1:1,2018-08-06T16:00:00Z,25.1670,-80.8010,1.5,30.79,1111122 
ENP,ioos.station.NOAA.NDBC:GBTF1:1,2018-08-06T17:00:00Z,25.1670,-80.8010,1.5,30.86,1111122 
ENP,ioos.station.NOAA.NDBC:GBTF1:1,2018-08-06T18:00:00Z,25.1670,-80.8010,1.5,30.79,1111122 
ENP,ioos.station.NOAA.NDBC:GBTF1:1,2018-08-06T19:00:00Z,25.1670,-80.8010,1.5,30.86,1111122 
ENP,ioos.station.NOAA.NDBC:GBTF1:1,2018-08-06T20:00:00Z,25.1670,-80.8010,1.5,30.93,1111122 
ENP,ioos.station.NOAA.NDBC:GBTF1:1,2018-08-06T21:00:00Z,25.1670,-80.8010,1.5,31.0,1111122 
ENP,ioos.station.NOAA.NDBC:GBTF1:1,2018-08-06T22:00:00Z,25.1670,-80.8010,1.5,31.0,1111122 
ENP,ioos.station.NOAA.NDBC:GBTF1:1,2018-08-06T23:00:00Z,25.1670,-80.8010,1.5,31.08,1111122 
ENP,ioos.station.NOAA.NDBC:GBTF1:1,2018-08-07T00:00:00Z,25.1670,-80.8010,1.5,31.22,1111122 
ENP,ioos.station.NOAA.NDBC:GBTF1:1,2018-08-07T01:00:00Z,25.1670,-80.8010,1.5,31.22,1111122 
ENP,ioos.station.NOAA.NDBC:GBTF1:1,2018-08-07T02:00:00Z,25.1670,-80.8010,1.5,31.29,1111122 
ENP,ioos.station.NOAA.NDBC:GBTF1:1,2018-08-07T03:00:00Z,25.1670,-80.8010,1.5,31.37,1111122 
ENP,ioos.station.NOAA.NDBC:GBTF1:1,2018-08-07T06:00:00Z,25.1670,-80.8010,1.5,31.37,1111122 
ENP,ioos.station.NOAA.NDBC:GBTF1:1,2018-08-07T07:00:00Z,25.1670,-80.8010,1.5,31.44,1111122 
ENP,ioos.station.NOAA.NDBC:GBTF1:1,2018-08-07T08:00:00Z,25.1670,-80.8010,1.5,31.58,1111122 
ENP,ioos.station.NOAA.NDBC:GBTF1:1,2018-08-07T09:00:00Z,25.1670,-80.8010,1.5,31.66,1111122 
ENP,ioos.station.NOAA.NDBC:GBTF1:1,2018-08-07T10:00:00Z,25.1670,-80.8010,1.5,31.73,1111122 
ENP,ioos.station.NOAA.NDBC:GBTF1:1,2018-08-07T11:00:00Z,25.1670,-80.8010,1.5,31.58,1111122 
ENP,ioos.station.NOAA.NDBC:GBTF1:1,2018-08-07T12:00:00Z,25.1670,-80.8010,1.5,31.58,1111122 
ENP,ioos.station.NOAA.NDBC:GBTF1:1,2018-08-07T13:00:00Z,25.1670,-80.8010,1.5,31.44,1111122 
ENP,ioos.station.NOAA.NDBC:GBTF1:1,2018-08-07T14:00:00Z,25.1670,-80.8010,1.5,31.37,1111122 
ENP,ioos.station.NOAA.NDBC:GBTF1:1,2018-08-07T15:00:00Z,25.1670,-80.8010,1.5,31.22,1111122 
ENP,ioos.station.NOAA.NDBC:GBTF1:1,2018-08-07T16:00:00Z,25.1670,-80.8010,1.5,31.15,1111122 
ENP,ioos.station.NOAA.NDBC:GBTF1:1,2018-08-07T17:00:00Z,25.1670,-80.8010,1.5,31.15,1111122 
ENP,ioos.station.NOAA.NDBC:GBTF1:1,2018-08-07T18:00:00Z,25.1670,-80.8010,1.5,31.15,1111122 
ENP,ioos.station.NOAA.NDBC:GBTF1:1,2018-08-07T19:00:00Z,25.1670,-80.8010,1.5,31.22,1111122 
ENP,ioos.station.NOAA.NDBC:GBTF1:1,2018-08-07T20:00:00Z,25.1670,-80.8010,1.5,31.15,1111122 
ENP,ioos.station.NOAA.NDBC:GBTF1:1,2018-08-07T21:00:00Z,25.1670,-80.8010,1.5,31.15,1111122 
ENP,ioos.station.NOAA.NDBC:GBTF1:1,2018-08-07T22:00:00Z,25.1670,-80.8010,1.5,31.22,1111122 
ENP,ioos.station.NOAA.NDBC:GBTF1:1,2018-08-07T23:00:00Z,25.1670,-80.8010,1.5,31.29,1111122 
ENP,ioos.station.NOAA.NDBC:GBTF1:1,2018-08-08T00:00:00Z,25.1670,-80.8010,1.5,31.37,1111122 
ENP,ioos.station.NOAA.NDBC:GBTF1:1,2018-08-08T01:00:00Z,25.1670,-80.8010,1.5,31.51,1111122 
ENP,ioos.station.NOAA.NDBC:GBTF1:1,2018-08-08T02:00:00Z,25.1670,-80.8010,1.5,31.51,1111122 
ENP,ioos.station.NOAA.NDBC:GBTF1:1,2018-08-08T03:00:00Z,25.1670,-80.8010,1.5,29.49,1111122 
ENP,ioos.station.NOAA.NDBC:GBTF1:1,2018-08-08T06:00:00Z,25.1670,-80.8010,1.5,31.29,1111122 
ENP,ioos.station.NOAA.NDBC:GBTF1:1,2018-08-08T07:00:00Z,25.1670,-80.8010,1.5,31.29,1111122 
ENP,ioos.station.NOAA.NDBC:GBTF1:1,2018-08-08T08:00:00Z,25.1670,-80.8010,1.5,31.0,1111122 
ENP,ioos.station.NOAA.NDBC:GBTF1:1,2018-08-08T09:00:00Z,25.1670,-80.8010,1.5,30.86,1111122 
ENP,ioos.station.NOAA.NDBC:GBTF1:1,2018-08-08T10:00:00Z,25.1670,-80.8010,1.5,30.93,1111122 
ENP,ioos.station.NOAA.NDBC:GBTF1:1,2018-08-08T11:00:00Z,25.1670,-80.8010,1.5,30.86,1111122 
ENP,ioos.station.NOAA.NDBC:GBTF1:1,2018-08-08T12:00:00Z,25.1670,-80.8010,1.5,30.64,1111122 
ENP,ioos.station.NOAA.NDBC:GBTF1:1,2018-08-08T13:00:00Z,25.1670,-80.8010,1.5,30.5,1111122 
ENP,ioos.station.NOAA.NDBC:GBTF1:1,2018-08-08T14:00:00Z,25.1670,-80.8010,1.5,30.57,1111122 
ENP,ioos.station.NOAA.NDBC:GBTF1:1,2018-08-08T15:00:00Z,25.1670,-80.8010,1.5,30.42,1111122 
ENP,ioos.station.NOAA.NDBC:GBTF1:1,2018-08-08T16:00:00Z,25.1670,-80.8010,1.5,30.21,1111122 
ENP,ioos.station.NOAA.NDBC:GBTF1:1,2018-08-08T17:00:00Z,25.1670,-80.8010,1.5,29.77,1111122 
ENP,ioos.station.NOAA.NDBC:GBTF1:1,2018-08-08T18:00:00Z,25.1670,-80.8010,1.5,29.41,1111122 
ENP,ioos.station.NOAA.NDBC:GBTF1:1,2018-08-08T20:00:00Z,25.1670,-80.8010,1.5,29.99,1111122 
ENP,ioos.station.NOAA.NDBC:GBTF1:1,2018-08-08T22:00:00Z,25.1670,-80.8010,1.5,29.92,1111122 
ENP,ioos.station.NOAA.NDBC:GBTF1:1,2018-08-08T23:00:00Z,25.1670,-80.8010,1.5,29.85,1111122 
ENP,ioos.station.NOAA.NDBC:GBTF1:1,2018-08-09T00:00:00Z,25.1670,-80.8010,1.5,29.85,1111122 
ENP,ioos.station.NOAA.NDBC:GBTF1:1,2018-08-09T01:00:00Z,25.1670,-80.8010,1.5,29.92,1111122 
ENP,ioos.station.NOAA.NDBC:GBTF1:1,2018-08-09T02:00:00Z,25.1670,-80.8010,1.5,29.99,1111122 
ENP,ioos.station.NOAA.NDBC:GBTF1:1,2018-08-09T03:00:00Z,25.1670,-80.8010,1.5,30.06,1111122 
ENP,ioos.station.NOAA.NDBC:GBTF1:1,2018-08-09T06:00:00Z,25.1670,-80.8010,1.5,29.85,1111122 
ENP,ioos.station.NOAA.NDBC:GBTF1:1,2018-08-09T07:00:00Z,25.1670,-80.8010,1.5,29.92,1111122 
ENP,ioos.station.NOAA.NDBC:GBTF1:1,2018-08-09T08:00:00Z,25.1670,-80.8010,1.5,29.85,1111122 
ENP,ioos.station.NOAA.NDBC:GBTF1:1,2018-08-09T09:00:00Z,25.1670,-80.8010,1.5,29.85,1111122 
ENP,ioos.station.NOAA.NDBC:GBTF1:1,2018-08-09T10:00:00Z,25.1670,-80.8010,1.5,29.99,1111122 
ENP,ioos.station.NOAA.NDBC:GBTF1:1,2018-08-09T11:00:00Z,25.1670,-80.8010,1.5,30.28,1111122 
ENP,ioos.station.NOAA.NDBC:GBTF1:1,2018-08-09T12:00:00Z,25.1670,-80.8010,1.5,30.57,1111122 
ENP,ioos.station.NOAA.NDBC:GBTF1:1,2018-08-09T13:00:00Z,25.1670,-80.8010,1.5,30.57,1111122 
ENP,ioos.station.NOAA.NDBC:GBTF1:1,2018-08-09T14:00:00Z,25.1670,-80.8010,1.5,30.57,1111122 
ENP,ioos.station.NOAA.NDBC:GBTF1:1,2018-08-09T15:00:00Z,25.1670,-80.8010,1.5,30.57,1111122 
ENP,ioos.station.NOAA.NDBC:GBTF1:1,2018-08-09T17:00:00Z,25.1670,-80.8010,1.5,30.21,1111122 
ENP,ioos.station.NOAA.NDBC:GBTF1:1,2018-08-09T18:00:00Z,25.1670,-80.8010,1.5,29.77,1111122 
ENP,ioos.station.NOAA.NDBC:GBTF1:1,2018-08-09T19:00:00Z,25.1670,-80.8010,1.5,28.41,1111122 
ENP,ioos.station.NOAA.NDBC:GBTF1:1,2018-08-09T21:00:00Z,25.1670,-80.8010,1.5,28.05,1111122 
ENP,ioos.station.NOAA.NDBC:GBTF1:1,2018-08-09T23:00:00Z,25.1670,-80.8010,1.5,28.34,1111122 
ENP,ioos.station.NOAA.NDBC:GBTF1:1,2018-08-10T00:00:00Z,25.1670,-80.8010,1.5,28.12,1111122 
ENP,ioos.station.NOAA.NDBC:GBTF1:1,2018-08-10T01:00:00Z,25.1670,-80.8010,1.5,27.84,1111122 
ENP,ioos.station.NOAA.NDBC:GBTF1:1,2018-08-10T06:00:00Z,25.1670,-80.8010,1.5,28.05,1111122 
ENP,ioos.station.NOAA.NDBC:GBTF1:1,2018-08-10T07:00:00Z,25.1670,-80.8010,1.5,28.34,1111122 
ENP,ioos.station.NOAA.NDBC:GBTF1:1,2018-08-10T08:00:00Z,25.1670,-80.8010,1.5,28.77,1111122 
ENP,ioos.station.NOAA.NDBC:GBTF1:1,2018-08-10T12:00:00Z,25.1670,-80.8010,1.5,28.84,1111122 
ENP,ioos.station.NOAA.NDBC:GBTF1:1,2018-08-10T13:00:00Z,25.1670,-80.8010,1.5,28.05,1111122 
ENP,ioos.station.NOAA.NDBC:GBTF1:1,2018-08-10T14:00:00Z,25.1670,-80.8010,1.5,27.62,1111122 
ENP,ioos.station.NOAA.NDBC:GBTF1:1,2018-08-10T15:00:00Z,25.1670,-80.8010,1.5,27.62,1111122 
ENP,ioos.station.NOAA.NDBC:GBTF1:1,2018-08-10T16:00:00Z,25.1670,-80.8010,1.5,27.55,1111122 
ENP,ioos.station.NOAA.NDBC:GBTF1:1,2018-08-10T17:00:00Z,25.1670,-80.8010,1.5,27.55,1111122 
ENP,ioos.station.NOAA.NDBC:GBTF1:1,2018-08-10T18:00:00Z,25.1670,-80.8010,1.5,27.34,1111122 
ENP,ioos.station.NOAA.NDBC:GBTF1:1,2018-08-10T19:00:00Z,25.1670,-80.8010,1.5,26.98,1111122 
ENP,ioos.station.NOAA.NDBC:GBTF1:1,2018-08-10T20:00:00Z,25.1670,-80.8010,1.5,27.05,1111122 
ENP,ioos.station.NOAA.NDBC:GBTF1:1,2018-08-10T21:00:00Z,25.1670,-80.8010,1.5,27.12,1111122 
ENP,ioos.station.NOAA.NDBC:GBTF1:1,2018-08-10T22:00:00Z,25.1670,-80.8010,1.5,27.2,1111122 
ENP,ioos.station.NOAA.NDBC:GBTF1:1,2018-08-10T23:00:00Z,25.1670,-80.8010,1.5,27.48,1111122 
ENP,ioos.station.NOAA.NDBC:GBTF1:1,2018-08-11T00:00:00Z,25.1670,-80.8010,1.5,27.41,1111122 
ENP,ioos.station.NOAA.NDBC:GBTF1:1,2018-08-11T01:00:00Z,25.1670,-80.8010,1.5,27.34,1111122 
ENP,ioos.station.NOAA.NDBC:GBTF1:1,2018-08-11T02:00:00Z,25.1670,-80.8010,1.5,27.27,1111122 
ENP,ioos.station.NOAA.NDBC:GBTF1:1,2018-08-11T03:00:00Z,25.1670,-80.8010,1.5,26.77,1111122 
ENP,ioos.station.NOAA.NDBC:GBTF1:1,2018-08-11T06:00:00Z,25.1670,-80.8010,1.5,26.7,1111122 
ENP,ioos.station.NOAA.NDBC:GBTF1:1,2018-08-11T07:00:00Z,25.1670,-80.8010,1.5,26.77,1111122 
ENP,ioos.station.NOAA.NDBC:GBTF1:1,2018-08-11T08:00:00Z,25.1670,-80.8010,1.5,26.91,1111122 
ENP,ioos.station.NOAA.NDBC:GBTF1:1,2018-08-11T09:00:00Z,25.1670,-80.8010,1.5,26.98,1111122 
ENP,ioos.station.NOAA.NDBC:GBTF1:1,2018-08-11T10:00:00Z,25.1670,-80.8010,1.5,27.12,1111122 
ENP,ioos.station.NOAA.NDBC:GBTF1:1,2018-08-11T11:00:00Z,25.1670,-80.8010,1.5,27.2,1111122 
ENP,ioos.station.NOAA.NDBC:GBTF1:1,2018-08-11T12:00:00Z,25.1670,-80.8010,1.5,27.2,1111122 
ENP,ioos.station.NOAA.NDBC:GBTF1:1,2018-08-11T13:00:00Z,25.1670,-80.8010,1.5,27.12,1111122 
ENP,ioos.station.NOAA.NDBC:GBTF1:1,2018-08-11T14:00:00Z,25.1670,-80.8010,1.5,26.98,1111122 
ENP,ioos.station.NOAA.NDBC:GBTF1:1,2018-08-11T15:00:00Z,25.1670,-80.8010,1.5,27.05,1111122 
ENP,ioos.station.NOAA.NDBC:GBTF1:1,2018-08-11T16:00:00Z,25.1670,-80.8010,1.5,26.98,1111122 
ENP,ioos.station.NOAA.NDBC:GBTF1:1,2018-08-11T17:00:00Z,25.1670,-80.8010,1.5,27.05,1111122 
ENP,ioos.station.NOAA.NDBC:GBTF1:1,2018-08-11T18:00:00Z,25.1670,-80.8010,1.5,26.7,1111122 
ENP,ioos.station.NOAA.NDBC:GBTF1:1,2018-08-11T19:00:00Z,25.1670,-80.8010,1.5,26.7,1111122 
ENP,ioos.station.NOAA.NDBC:GBTF1:1,2018-08-11T20:00:00Z,25.1670,-80.8010,1.5,26.7,1111122 
ENP,ioos.station.NOAA.NDBC:GBTF1:1,2018-08-11T21:00:00Z,25.1670,-80.8010,1.5,26.84,1111122 
ENP,ioos.station.NOAA.NDBC:GBTF1:1,2018-08-11T22:00:00Z,25.1670,-80.8010,1.5,26.98,1111122 
ENP,ioos.station.NOAA.NDBC:GBTF1:1,2018-08-11T23:00:00Z,25.1670,-80.8010,1.5,26.84,1111122 
ENP,ioos.station.NOAA.NDBC:GBTF1:1,2018-08-12T00:00:00Z,25.1670,-80.8010,1.5,26.7,1111122 
ENP,ioos.station.NOAA.NDBC:GBTF1:1,2018-08-12T01:00:00Z,25.1670,-80.8010,1.5,26.7,1111122 
ENP,ioos.station.NOAA.NDBC:GBTF1:1,2018-08-12T02:00:00Z,25.1670,-80.8010,1.5,26.7,1111122 
ENP,ioos.station.NOAA.NDBC:GBTF1:1,2018-08-12T03:00:00Z,25.1670,-80.8010,1.5,26.77,1111122 
ENP,ioos.station.NOAA.NDBC:GBTF1:1,2018-08-12T06:00:00Z,25.1670,-80.8010,1.5,27.05,1111122 
ENP,ioos.station.NOAA.NDBC:GBTF1:1,2018-08-12T07:00:00Z,25.1670,-80.8010,1.5,27.05,1111122 
ENP,ioos.station.NOAA.NDBC:GBTF1:1,2018-08-12T08:00:00Z,25.1670,-80.8010,1.5,26.91,1111122 
ENP,ioos.station.NOAA.NDBC:GBTF1:1,2018-08-12T09:00:00Z,25.1670,-80.8010,1.5,26.91,1111122 
ENP,ioos.station.NOAA.NDBC:GBTF1:1,2018-08-12T10:00:00Z,25.1670,-80.8010,1.5,26.98,1111122 
ENP,ioos.station.NOAA.NDBC:GBTF1:1,2018-08-12T11:00:00Z,25.1670,-80.8010,1.5,26.84,1111122 
ENP,ioos.station.NOAA.NDBC:GBTF1:1,2018-08-12T12:00:00Z,25.1670,-80.8010,1.5,26.91,1111122 
ENP,ioos.station.NOAA.NDBC:GBTF1:1,2018-08-12T13:00:00Z,25.1670,-80.8010,1.5,26.77,1111122 
ENP,ioos.station.NOAA.NDBC:GBTF1:1,2018-08-12T14:00:00Z,25.1670,-80.8010,1.5,26.84,1111122 
ENP,ioos.station.NOAA.NDBC:GBTF1:1,2018-08-12T15:00:00Z,25.1670,-80.8010,1.5,26.84,1111122 
ENP,ioos.station.NOAA.NDBC:GBTF1:1,2018-08-12T16:00:00Z,25.1670,-80.8010,1.5,26.84,1111122 
ENP,ioos.station.NOAA.NDBC:GBTF1:1,2018-08-12T17:00:00Z,25.1670,-80.8010,1.5,26.84,1111122 
ENP,ioos.station.NOAA.NDBC:GBTF1:1,2018-08-12T18:00:00Z,25.1670,-80.8010,1.5,26.84,1111122 
ENP,ioos.station.NOAA.NDBC:GBTF1:1,2018-08-12T19:00:00Z,25.1670,-80.8010,1.5,26.7,1111122 
ENP,ioos.station.NOAA.NDBC:GBTF1:1,2018-08-12T20:00:00Z,25.1670,-80.8010,1.5,26.63,1111122 
ENP,ioos.station.NOAA.NDBC:GBTF1:1,2018-08-12T21:00:00Z,25.1670,-80.8010,1.5,26.63,1111122 
ENP,ioos.station.NOAA.NDBC:GBTF1:1,2018-08-12T22:00:00Z,25.1670,-80.8010,1.5,26.77,1111122 
ENP,ioos.station.NOAA.NDBC:GBTF1:1,2018-08-12T23:00:00Z,25.1670,-80.8010,1.5,27.2,1111122 
ENP,ioos.station.NOAA.NDBC:GBTF1:1,2018-08-13T00:00:00Z,25.1670,-80.8010,1.5,27.62,1111122 
ENP,ioos.station.NOAA.NDBC:GBTF1:1,2018-08-13T01:00:00Z,25.1670,-80.8010,1.5,27.91,1111122 
ENP,ioos.station.NOAA.NDBC:GBTF1:1,2018-08-13T02:00:00Z,25.1670,-80.8010,1.5,27.62,1111122 
ENP,ioos.station.NOAA.NDBC:GBTF1:1,2018-08-13T03:00:00Z,25.1670,-80.8010,1.5,27.41,1111122 
ENP,ioos.station.NOAA.NDBC:GBTF1:1,2018-08-13T06:00:00Z,25.1670,-80.8010,1.5,27.05,1111122 
ENP,ioos.station.NOAA.NDBC:GBTF1:1,2018-08-13T07:00:00Z,25.1670,-80.8010,1.5,26.91,1111122 
ENP,ioos.station.NOAA.NDBC:GBTF1:1,2018-08-13T08:00:00Z,25.1670,-80.8010,1.5,26.84,1111122 
ENP,ioos.station.NOAA.NDBC:GBTF1:1,2018-08-13T09:00:00Z,25.1670,-80.8010,1.5,26.77,1111122 
ENP,ioos.station.NOAA.NDBC:GBTF1:1,2018-08-13T10:00:00Z,25.1670,-80.8010,1.5,26.77,1111122 
ENP,ioos.station.NOAA.NDBC:GBTF1:1,2018-08-13T11:00:00Z,25.1670,-80.8010,1.5,26.84,1111122 